This demonstration page uses our WeatherBlox Daily Observations layout. Learn more.

40.92945, -100.16068

Hourly Observations for December 30, 2018

Temp ( °F °C ) Dew Point ( °F °C ) Humidity (%) Winds ( mph kmh ) Pressure ( in mb ) Visibility ( mi km ) Precip ( " mm )
12:15 am 00:15 Clear 22 -5.6 15 -9.2 76 76 SW 10 17 30.06 1018 10 16.0934 0 0
12:35 am 00:35 Clear 22 -5.5 15 -9.2 75 75 SW 3 6 30.06 1018 10 16.0934 0 0
12:55 am 00:55 Clear 22 -5.5 15 -9.2 75 75 SW 5 7 30.06 1018 10 16.0934 0 0
1:15 am 01:15 Clear 23 -5 16 -9.1 73 73 WSW 6 9 30.06 1018 10 16.0934 0 0
1:35 am 01:35 Clear 22 -5.5 15 -9.4 74 74 WSW 3 6 30.03 1017 10 16.0934 0 0
1:55 am 01:55 Clear 23 -5.1 15 -9.3 73 73 WSW 8 13 30.03 1017 10 16.0934 0 0
2:15 am 02:15 Clear 22 -5.8 14 -9.8 74 74 Calm 30.03 1017 10 16.0934 0 0
2:35 am 02:35 Clear 23 -5.2 15 -9.6 72 72 WSW 3 6 30.03 1017 10 16.0934 0 0
2:55 am 02:55 Clear 21 -6.2 14 -9.8 76 76 W 3 6 30 1016 10 16.0934 0 0
3:15 am 03:15 Clear 21 -6.1 14 -10.1 74 74 Calm 30.03 1017 10 16.0934 0 0
3:35 am 03:35 Clear 20 -6.5 14 -10.1 76 76 WSW 7 11 30 1016 10 16.0934 0 0
3:55 am 03:55 Clear 19 -7 13 -10.4 77 77 WSW 6 9 30 1016 10 16.0934 0 0
4:15 am 04:15 Clear 19 -7.5 12 -11.2 75 75 Calm 30 1016 10 16.0934 0 0
4:35 am 04:35 Clear 20 -6.7 13 -10.6 74 74 WSW 3 6 29.94 1014 10 16.0934 0 0
4:55 am 04:55 Clear 19 -7.3 12 -10.9 76 76 WSW 5 7 29.97 1015 10 16.0934 0 0
5:15 am 05:15 Clear 22 -5.5 14 -10.1 70 70 WSW 6 9 29.94 1014 10 16.0934 0 0
5:35 am 05:35 Clear 22 -5.7 13 -10.3 70 70 SW 7 11 29.94 1014 10 16.0934 0 0
5:55 am 05:55 Clear 20 -6.4 13 -10.5 73 73 WSW 3 6 29.91 1013 10 16.0934 0 0
6:15 am 06:15 Clear 21 -6.2 13 -10.4 72 72 WSW 6 9 29.91 1013 10 16.0934 0 0
6:35 am 06:35 Clear 20 -6.7 13 -10.6 74 74 WSW 5 7 29.91 1013 10 16.0934 0 0
6:55 am 06:55 Clear 18 -7.6 12 -11.3 75 75 SSW 6 9 29.94 1014 10 16.0934 0 0
7:15 am 07:15 Clear 21 -6.2 13 -10.5 72 72 WSW 3 6 29.91 1013 10 16.0934 0 0
7:35 am 07:35 Clear 18 -7.8 11 -11.4 76 76 W 6 9 29.94 1014 10 16.0934 0 0
7:55 am 07:55 Clear 16 -8.8 11 -11.8 79 79 SW 6 9 29.94 1014 10 16.0934 0 0
8:15 am 08:15 Sunny 17 -8.5 11 -11.5 79 79 W 5 7 29.94 1014 10 16.0934 0 0
8:35 am 08:35 Sunny 17 -8.2 12 -11.1 80 80 W 6 9 29.94 1014 10 16.0934 0 0
8:55 am 08:55 Sunny 18 -7.8 12 -10.9 79 79 WSW 3 6 29.94 1014 10 16.0934 0 0
9:15 am 09:15 Sunny 22 -5.7 14 -10 72 72 SW 5 7 29.91 1013 10 16.0934 0 0
9:35 am 09:35 Sunny 23 -4.8 15 -9.5 70 70 Calm 29.91 1013 10 16.0934 0 0
9:55 am 09:55 Sunny 24 -4.2 16 -9.1 69 69 Calm 29.88 1012 10 16.0934 0 0
10:15 am 10:15 Sunny 27 -2.9 17 -8.5 66 66 Calm 29.88 1012 10 16.0934 0 0
10:35 am 10:35 Sunny 27 -2.7 18 -7.7 69 69 WNW 7 11 29.85 1011 10 16.0934 0 0
10:55 am 10:55 Sunny 28 -2 19 -7.5 66 66 NW 7 11 29.85 1011 10 16.0934 0 0
11:15 am 11:15 Sunny 29 -1.4 19 -7 66 66 W 6 9 29.83 1010 10 16.0934 0 0
11:35 am 11:35 Sunny 31 -0.8 20 -6.4 66 66 W 3 6 29.8 1009 10 16.0934 0 0
11:55 am 11:55 Sunny 31 -0.6 20 -6.6 64 64 Calm 29.8 1009 10 16.0934 0 0
12:15 pm 12:15 Sunny 32 0 22 -5.6 66 66 SSE 6 9 29.8 1009 10 16.0934 0 0
12:35 pm 12:35 Sunny 34 1.1 21 -6 60 60 S 6 9 29.77 1008 10 16.0934 0 0
12:55 pm 12:55 Sunny 35 1.5 23 -4.8 63 63 S 6 9 29.77 1008 10 16.0934 0 0
1:15 pm 13:15 Sunny 35 1.7 24 -4.6 63 63 SSE 6 9 29.77 1008 10 16.0934 0 0
1:35 pm 13:35 Sunny 35 1.7 24 -4.5 64 64 SSE 5 7 29.74 1007 10 16.0934 0 0
1:55 pm 13:55 Sunny 35 1.8 24 -4.5 63 63 Calm 29.74 1007 10 16.0934 0 0
2:15 pm 14:15 Sunny 36 2.4 23 -5 59 59 Calm 29.74 1007 10 16.0934 0 0
2:35 pm 14:35 Sunny 36 2.2 23 -4.9 60 60 Calm 29.71 1006 10 16.0934 0 0
2:55 pm 14:55 Sunny 36 2.2 22 -5.8 56 56 Calm 29.71 1006 10 16.0934 0 0
3:15 pm 15:15 Sunny 37 2.5 22 -5.5 56 56 SSE 5 7 29.71 1006 10 16.0934 0 0
3:35 pm 15:35 Sunny 37 2.6 21 -6.2 53 53 SSE 3 6 29.71 1006 10 16.0934 0 0
3:55 pm 15:55 Sunny 36 2.4 22 -5.4 57 57 Calm 29.71 1006 10 16.0934 0 0
4:15 pm 16:15 Sunny 35 1.4 24 -4.7 64 64 SSE 8 13 29.71 1006 10 16.0934 0 0
4:35 pm 16:35 Sunny 34 0.9 24 -4.6 67 67 SSE 9 15 29.71 1006 10 16.0934 0 0
4:55 pm 16:55 Sunny 32 0 23 -4.9 70 70 SSE 12 19 29.74 1007 10 16.0934 0 0
5:15 pm 17:15 Sunny 30 -0.9 22 -5.4 72 72 SSE 8 13 29.74 1007 10 16.0934 0 0
5:35 pm 17:35 Clear 29 -1.9 21 -5.9 74 74 SSE 9 15 29.74 1007 10 16.0934 0 0
5:55 pm 17:55 Clear 29 -1.7 21 -6 73 73 SSE 9 15 29.74 1007 10 16.0934 0 0
6:15 pm 18:15 Clear 29 -1.6 21 -6 72 72 SE 7 11 29.74 1007 10 16.0934 0 0
6:35 pm 18:35 Clear 28 -2.2 21 -6 75 75 SE 8 13 29.74 1007 10 16.0934 0 0
6:55 pm 18:55 Clear 28 -2.5 21 -6.2 76 76 SE 7 11 29.74 1007 10 16.0934 0 0
7:15 pm 19:15 Clear 29 -1.8 22 -5.5 76 76 SE 13 20 29.74 1007 10 16.0934 0 0
7:35 pm 19:35 Partly Cloudy 28 -2.1 22 -5.8 76 76 SSE 10 17 29.74 1007 10 16.0934 0 0
7:55 pm 19:55 Mostly Cloudy 27 -2.6 21 -5.9 78 78 S 7 11 29.74 1007 10 16.0934 0 0
8:15 pm 20:15 Mostly Cloudy 30 -0.9 21 -6 69 69 SSW 8 13 29.74 1007 10 16.0934 0 0
8:35 pm 20:35 Mostly Cloudy 31 -0.5 22 -5.8 68 68 SW 9 15 29.74 1007 10 16.0934 0 0
8:55 pm 20:55 Cloudy 32 0 22 -5.6 66 66 SW 10 17 29.68 1005 10 16.0934 0 0
9:15 pm 21:15 Cloudy 32 -0.2 22 -5.5 68 68 W 8 13 29.74 1007 10 16.0934 0 0
9:35 pm 21:35 Cloudy 31 -0.4 22 -5.6 68 68 W 7 11 29.71 1006 10 16.0934 0 0
9:55 pm 21:55 Cloudy 30 -1 22 -5.7 71 71 WSW 6 9 29.71 1006 10 16.0934 0 0
10:15 pm 22:15 Cloudy 30 -1.3 22 -5.8 72 72 SW 7 11 29.68 1005 10 16.0934 0 0
10:35 pm 22:35 Mostly Cloudy 28 -2 21 -6 74 74 SW 5 7 29.68 1005 10 16.0934 0 0
10:55 pm 22:55 Mostly Cloudy 28 -2 21 -5.9 75 75 S 5 7 29.68 1005 10 16.0934 0 0
11:15 pm 23:15 Cloudy 28 -2.1 21 -5.9 76 76 WSW 5 7 29.71 1006 10 16.0934 0 0
11:35 pm 23:35 Cloudy 28 -2.5 21 -6.1 77 77 WSW 6 9 29.71 1006 10 16.0934 0 0
11:55 pm 23:55 Mostly Cloudy 27 -2.7 21 -6 78 78 Calm 29.74 1007 10 16.0934 0 0

Powered by AerisWeather